Weather History for KLEB - March, 2014

Change the Weather History Date:

Monday, March 31, 2014

  Actual Average Record
Temperature  
Mean Temperature 34 °F -  
Max Temperature 37 °F 49 °F 87 °F (1998)
Min Temperature 32 °F 28 °F 6 °F (1954)
Degree Days  
Heating Degree Days 30    
Moisture  
Dew Point 26 °F    
Average Humidity 69    
Maximum Humidity 85    
Minimum Humidity 57    
Precipitation  
Precipitation 0.03 in - - ()
Sea Level Pressure  
Sea Level Pressure 29.94 in    
Wind  
Wind Speed 10 mph (North)    
Max Wind Speed 18 mph    
Max Gust Speed 30 mph    
Visibility 10 miles    
Events Rain    
Averages and records for this station are not official NWS values.
T = Trace of Precipitation, MM = Missing Value Source: NWS Daily Summary

Daily Weather History Graph

Daily Weather History Graph

Search for Another Location

Airport or City:

Trip Planner

Search our weather history database for the weather conditions in past years. The results will help you decide how hot, cold, wet, or windy it might be!

Date:

Astronomy

Mar. 31, 2014 Rise Set
Actual Time 6:32 AM EDT 7:14 PM EDT
Civil Twilight 6:03 AM EDT 7:43 PM EDT
Nautical Twilight 5:29 AM EDT 8:18 PM EDT
Astronomical Twilight 4:54 AM EDT 8:53 PM EDT
Moon 6:52 AM EDT (3/31) 8:33 PM EDT (3/31)
Length of Visible Light 13h 39m
Length of Day
12h 42m
New Moon, 1% of the Moon is Illuminated
Mar 31
New Moon
Apr 7
First Quarter
Apr 15
Full
Apr 22
Last Quarter
Apr 29
New

Hourly Weather History & Observations

Time (EDT) Temp. Windchill Dew Point Humidity Pressure Visibility Wind Dir Wind Speed Gust Speed Precip Events Conditions
12:53 AM 34.0 °F 27.2 °F 28.9 °F 82% 29.81 in 8.0 mi North 8.1 mph - 0.01 in Rain Light Rain
1:25 AM 34.0 °F 25.5 °F 28.9 °F 82% 29.77 in 10.0 mi North 11.5 mph - 0.01 in   Overcast
1:53 AM 34.0 °F 26.6 °F 28.9 °F 82% 29.81 in 10.0 mi North 9.2 mph - 0.01 in   Overcast
2:26 AM 34.0 °F 27.2 °F 28.0 °F 79% 29.78 in 10.0 mi North 8.1 mph - 0.01 in Rain Light Rain
2:53 AM 33.1 °F 26.1 °F 28.9 °F 85% 29.81 in 10.0 mi North 8.1 mph - 0.01 in   Overcast
3:53 AM 33.1 °F 26.9 °F 28.0 °F 82% 29.83 in 10.0 mi NNW 6.9 mph - 0.00 in   Overcast
4:14 AM 33.1 °F 25.5 °F 27.0 °F 78% 29.82 in 10.0 mi North 9.2 mph - N/A   Overcast
4:53 AM 33.1 °F 25.5 °F 26.1 °F 75% 29.84 in 10.0 mi North 9.2 mph - N/A   Overcast
5:53 AM 32.0 °F 22.1 °F 25.0 °F 75% 29.87 in 10.0 mi North 13.8 mph - N/A   Overcast
6:53 AM 32.0 °F 24.2 °F 25.0 °F 75% 29.90 in 10.0 mi North 9.2 mph 19.6 mph N/A   Overcast
7:53 AM 32.0 °F 24.8 °F 24.1 °F 73% 29.93 in 10.0 mi North 8.1 mph 24.2 mph N/A   Overcast
8:53 AM 33.1 °F 22.6 °F 24.1 °F 70% 29.95 in 10.0 mi North 16.1 mph 29.9 mph N/A   Overcast
9:53 AM 33.1 °F 26.9 °F 25.0 °F 72% 29.96 in 10.0 mi Variable 6.9 mph - N/A   Overcast
10:53 AM 34.0 °F 23.4 °F 25.0 °F 70% 29.95 in 10.0 mi North 17.3 mph 28.8 mph N/A   Overcast
11:53 AM 36.0 °F 26.3 °F 25.0 °F 64% 29.94 in 10.0 mi North 16.1 mph 21.9 mph N/A   Overcast
12:53 PM 36.0 °F 25.6 °F 25.0 °F 64% 29.95 in 10.0 mi NNW 18.4 mph 26.5 mph N/A   Overcast
1:53 PM 36.0 °F 25.6 °F 25.0 °F 64% 29.96 in 10.0 mi North 18.4 mph 25.3 mph N/A   Overcast
2:53 PM 37.0 °F 27.4 °F 25.0 °F 62% 29.96 in 10.0 mi North 17.3 mph 24.2 mph N/A   Overcast
3:53 PM 37.0 °F 28.9 °F 26.1 °F 65% 29.99 in 10.0 mi North 12.7 mph - N/A   Overcast
4:53 PM 37.0 °F 30.4 °F 26.1 °F 65% 30.02 in 10.0 mi NNW 9.2 mph - N/A   Overcast
5:53 PM 37.0 °F 29.8 °F 25.0 °F 62% 30.03 in 10.0 mi North 10.4 mph 18.4 mph N/A   Overcast
6:18 PM 37.0 °F 29.8 °F 24.1 °F 59% 30.03 in 10.0 mi North 10.4 mph 19.6 mph N/A   Overcast
6:53 PM 37.0 °F 29.3 °F 24.1 °F 59% 30.06 in 10.0 mi North 11.5 mph - N/A   Overcast
7:53 PM 37.0 °F 29.3 °F 24.1 °F 59% 30.07 in 10.0 mi North 11.5 mph 18.4 mph N/A   Overcast
8:53 PM 37.0 °F 28.5 °F 24.1 °F 59% 30.09 in 10.0 mi North 13.8 mph 21.9 mph N/A   Overcast
9:53 PM 37.0 °F 28.5 °F 23.0 °F 57% 30.09 in 10.0 mi North 13.8 mph 24.2 mph N/A   Overcast
10:53 PM 37.0 °F 33.3 °F 23.0 °F 57% 30.11 in 10.0 mi North 4.6 mph - N/A   Overcast
11:53 PM 36.0 °F - 23.0 °F 59% 30.12 in 10.0 mi Calm Calm - N/A   Overcast